When you browse on this site, cookies collect data to enhance your experience and personalize the content and advertising you see.
Visit our Privacy Policy to learn more. By continuing to use the site, you agree to this use of cookies and data.
  • Em Portugal
  • Lista de países
  • Para 7 dias
  • Temperatura da água
  • Mapa do tempo
  • Widgets de tempo
  • user-avatar
    Iniciar Sessão

    Previsão horária em Luhovka

    Hoje, 21 Agosto, Quarta-feira

    Tempo Temperatura Precipitação Vento Pressão Humidade
    00:00 +17°C° 0 mm 2 m/s 754 mmHg 92%
    01:00 +17°C° 0 mm 2 m/s 754 mmHg 92%
    02:00 +17°C° 0 mm 2 m/s 754 mmHg 93%
    03:00 +18°C° 0 mm 1 m/s 754 mmHg 94%
    04:00 +18°C° 0 mm 1 m/s 755 mmHg 94%
    05:00 +18°C° 0 mm 1 m/s 755 mmHg 94%
    06:00 +18°C° 0 mm 1 m/s 755 mmHg 94%
    07:00 +19°C° 0 mm 2 m/s 755 mmHg 88%
    08:00 +20°C° 0 mm 2 m/s 755 mmHg 82%
    09:00 +23°C° 0 mm 2 m/s 755 mmHg 77%
    10:00 +24°C° 0 mm 2 m/s 755 mmHg 73%
    11:00 +25°C° 0 mm 2 m/s 755 mmHg 68%
    12:00 +26°C° 0 mm 3 m/s 755 mmHg 64%
    13:00 +26°C° 0 mm 3 m/s 755 mmHg 63%
    14:00 +27°C° 0 mm 2 m/s 755 mmHg 63%
    15:00 +27°C° 0 mm 2 m/s 755 mmHg 62%
    16:00 +26°C° 0 mm 2 m/s 755 mmHg 66%
    17:00 +26°C° 0 mm 2 m/s 755 mmHg 71%
    18:00 +25°C° 0 mm 2 m/s 755 mmHg 75%
    19:00 +24°C° 0 mm 1 m/s 754 mmHg 78%
    20:00 +22°C° 0 mm 1 m/s 754 mmHg 82%
    21:00 +21°C° 0 mm 1 m/s 754 mmHg 85%
    22:00 +21°C° 0 mm 1 m/s 754 mmHg 86%
    23:00 +18°C° 0 mm 0 m/s 754 mmHg 87%

    Amanhã, 22 Agosto, Quinta-feira

    Tempo Temperatura Precipitação Vento Pressão Humidade
    00:00 +18°C° 0 mm 0 m/s 754 mmHg 88%
    01:00 +18°C° 0 mm 0 m/s 754 mmHg 88%
    02:00 +17°C° 0 mm 0 m/s 755 mmHg 89%
    03:00 +17°C° 0 mm 0 m/s 755 mmHg 89%
    04:00 +17°C° 0 mm 0 m/s 755 mmHg 90%
    05:00 +17°C° 0 mm 0 m/s 754 mmHg 90%
    06:00 +18°C° 0 mm 0 m/s 754 mmHg 90%
    07:00 +19°C° 0 mm 0 m/s 754 mmHg 84%
    08:00 +21°C° 0 mm 0 m/s 754 mmHg 79%
    09:00 +24°C° 0 mm 1 m/s 754 mmHg 73%
    10:00 +25°C° 0 mm 1 m/s 754 mmHg 69%
    11:00 +26°C° 0 mm 1 m/s 754 mmHg 64%
    12:00 +27°C° 0 mm 1 m/s 754 mmHg 59%
    13:00 +28°C° 0 mm 1 m/s 753 mmHg 57%
    14:00 +28°C° 0 mm 1 m/s 753 mmHg 56%
    15:00 +28°C° 0 mm 1 m/s 753 mmHg 54%
    16:00 +28°C° 0 mm 1 m/s 753 mmHg 59%
    17:00 +27°C° 0 mm 1 m/s 753 mmHg 63%
    18:00 +26°C° 0 mm 1 m/s 752 mmHg 67%
    19:00 +25°C° 0 mm 1 m/s 752 mmHg 70%
    20:00 +24°C° 0 mm 1 m/s 752 mmHg 73%
    21:00 +22°C° 0 mm 1 m/s 753 mmHg 76%
    22:00 +22°C° 0 mm 1 m/s 753 mmHg 77%
    23:00 +22°C° 0 mm 1 m/s 753 mmHg 79%

    Depois de amanhã, 23 Agosto, Sexta-feira

    Tempo Temperatura Precipitação Vento Pressão Humidade
    00:00 +21°C° 0 mm 1 m/s 753 mmHg 80%
    01:00 +21°C° 0 mm 1 m/s 753 mmHg 81%
    02:00 +20°C° 0 mm 2 m/s 753 mmHg 81%
    03:00 +20°C° 0 mm 2 m/s 753 mmHg 81%
    04:00 +20°C° 0 mm 3 m/s 754 mmHg 85%
    05:00 +20°C° 0 mm 3 m/s 754 mmHg 88%
    06:00 +19°C° 0 mm 4 m/s 754 mmHg 92%
    07:00 +19°C° 0 mm 4 m/s 754 mmHg 90%
    08:00 +19°C° 0 mm 4 m/s 754 mmHg 89%
    09:00 +19°C° 0 mm 4 m/s 755 mmHg 87%
    10:00 +20°C° 0 mm 4 m/s 755 mmHg 82%
    11:00 +20°C° 0 mm 4 m/s 755 mmHg 77%
    12:00 +21°C° 0 mm 4 m/s 755 mmHg 72%
    13:00 +22°C° 0 mm 4 m/s 755 mmHg 68%
    14:00 +22°C° 0 mm 4 m/s 755 mmHg 64%
    15:00 +23°C° 0 mm 4 m/s 755 mmHg 60%
    16:00 +22°C° 0 mm 4 m/s 755 mmHg 64%
    17:00 +21°C° 0 mm 3 m/s 755 mmHg 68%
    18:00 +20°C° 0 mm 3 m/s 755 mmHg 72%
    19:00 +19°C° 0 mm 3 m/s 755 mmHg 75%
    20:00 +18°C° 0 mm 2 m/s 755 mmHg 77%
    21:00 +16°C° 0 mm 2 m/s 756 mmHg 80%
    22:00 +16°C° 0 mm 2 m/s 756 mmHg 81%
    23:00 +15°C° 0 mm 2 m/s 756 mmHg 82%

    24 Agosto, Sábado

    Tempo Temperatura Precipitação Vento Pressão Humidade
    00:00 +15°C° 0 mm 2 m/s 756 mmHg 83%
    01:00 +15°C° 0 mm 2 m/s 756 mmHg 83%
    02:00 +14°C° 0 mm 2 m/s 756 mmHg 83%
    03:00 +14°C° 0 mm 2 m/s 756 mmHg 83%
    04:00 +14°C° 0 mm 2 m/s 756 mmHg 84%
    05:00 +14°C° 0 mm 2 m/s 756 mmHg 85%
    06:00 +14°C° 0 mm 1 m/s 757 mmHg 86%
    07:00 +16°C° 0 mm 2 m/s 757 mmHg 80%
    08:00 +18°C° 0 mm 2 m/s 757 mmHg 74%
    09:00 +19°C° 0 mm 2 m/s 757 mmHg 68%
    10:00 +20°C° 0 mm 2 m/s 757 mmHg 64%
    11:00 +21°C° 0 mm 2 m/s 757 mmHg 59%
    12:00 +23°C° 0 mm 2 m/s 756 mmHg 55%
    13:00 +23°C° 0 mm 2 m/s 756 mmHg 54%
    14:00 +24°C° 0 mm 2 m/s 756 mmHg 53%
    15:00 +24°C° 0 mm 2 m/s 756 mmHg 53%
    16:00 +23°C° 0 mm 2 m/s 756 mmHg 57%
    17:00 +23°C° 0 mm 1 m/s 755 mmHg 62%
    18:00 +22°C° 0 mm 1 m/s 755 mmHg 66%
    19:00 +20°C° 0 mm 1 m/s 755 mmHg 70%
    20:00 +17°C° 0 mm 0 m/s 755 mmHg 73%
    21:00 +15°C° 0 mm 0 m/s 755 mmHg 77%
    22:00 +15°C° 0 mm 0 m/s 755 mmHg 78%
    23:00 +16°C° 0 mm 1 m/s 755 mmHg 79%

    25 Agosto, Domingo

    Tempo Temperatura Precipitação Vento Pressão Humidade
    00:00 +15°C° 0 mm 1 m/s 755 mmHg 80%
    01:00 +15°C° 0 mm 1 m/s 755 mmHg 82%
    02:00 +15°C° 0 mm 1 m/s 754 mmHg 83%
    03:00 +14°C° 0 mm 2 m/s 754 mmHg 84%
    04:00 +14°C° 0 mm 2 m/s 754 mmHg 85%
    05:00 +14°C° 0 mm 2 m/s 754 mmHg 86%
    06:00 +14°C° 0 mm 2 m/s 753 mmHg 87%
    07:00 +16°C° 0 mm 2 m/s 753 mmHg 81%
    08:00 +18°C° 0 mm 3 m/s 753 mmHg 75%
    09:00 +20°C° 0 mm 3 m/s 753 mmHg 69%
    10:00 +21°C° 0 mm 3 m/s 753 mmHg 65%
    11:00 +22°C° 0 mm 4 m/s 753 mmHg 61%
    12:00 +23°C° 0 mm 4 m/s 752 mmHg 57%
    13:00 +23°C° 0 mm 4 m/s 752 mmHg 56%
    14:00 +23°C° 0 mm 4 m/s 752 mmHg 56%
    15:00 +23°C° 0 mm 5 m/s 751 mmHg 56%
    16:00 +23°C° 0.1 mm 4 m/s 751 mmHg 61%
    17:00 +22°C° 0.1 mm 4 m/s 751 mmHg 67%
    18:00 +21°C° 0.1 mm 4 m/s 751 mmHg 72%
    19:00 +19°C° 0.6 mm 3 m/s 751 mmHg 80%
    20:00 +18°C° 0.6 mm 2 m/s 751 mmHg 87%
    21:00 +16°C° 0.6 mm 2 m/s 752 mmHg 95%
    22:00 +16°C° 0.2 mm 2 m/s 752 mmHg 94%
    23:00 +14°C° 0.2 mm 3 m/s 752 mmHg 94%

    26 Agosto, Segunda-feira

    Tempo Temperatura Precipitação Vento Pressão Humidade
    00:00 +14°C° 0.2 mm 3 m/s 752 mmHg 93%
    01:00 +13°C° 0 mm 3 m/s 753 mmHg 94%
    02:00 +12°C° 0 mm 4 m/s 753 mmHg 94%
    03:00 +12°C° 0 mm 4 m/s 753 mmHg 95%
    04:00 +11°C° 0 mm 4 m/s 754 mmHg 94%
    05:00 +11°C° 0 mm 4 m/s 754 mmHg 94%
    06:00 +11°C° 0 mm 4 m/s 754 mmHg 94%
    07:00 +10°C° 0 mm 5 m/s 755 mmHg 89%
    08:00 +12°C° 0 mm 5 m/s 755 mmHg 83%
    09:00 +13°C° 0 mm 6 m/s 755 mmHg 78%
    10:00 +14°C° 0 mm 6 m/s 756 mmHg 72%
    11:00 +14°C° 0 mm 6 m/s 756 mmHg 67%
    12:00 +15°C° 0 mm 6 m/s 756 mmHg 61%
    13:00 +15°C° 0 mm 6 m/s 756 mmHg 60%
    14:00 +15°C° 0 mm 6 m/s 756 mmHg 58%
    15:00 +15°C° 0 mm 6 m/s 756 mmHg 57%
    16:00 +15°C° 0 mm 5 m/s 756 mmHg 60%
    17:00 +14°C° 0 mm 4 m/s 757 mmHg 64%
    18:00 +13°C° 0 mm 3 m/s 757 mmHg 68%
    19:00 +12°C° 0 mm 3 m/s 757 mmHg 69%
    20:00 +11°C° 0 mm 3 m/s 757 mmHg 71%
    21:00 +9°C° 0 mm 2 m/s 757 mmHg 72%
    22:00 +9°C° 0 mm 2 m/s 758 mmHg 73%
    23:00 +8°C° 0 mm 2 m/s 758 mmHg 73%
    Mostrar mais